Location: Wald
(31.7579°N, 86.6655°W)
Time: 12:08:04
(UTC+00:00)

Okean 2 Rocket - Pass Details

Date: 14 July 2020
Orbit: 618 x 640 km, 82.5° (Epoch: 08 August)

Event Time Altitude Azimuth Distance (km) Brightness Sun altitude
Exits shadow 10:16:15 - 211° (SSW) 2,304 5.4 -7.4°
Reaches altitude 10° 10:17:09 10° 216° (SW) 1,974 5.1 -7.3°
Maximum altitude 10:21:05 33° 280° (W) 1,052 3.9 -6.5°
Drops below altitude 10° 10:25:02 10° 345° (NNW) 1,985 5.9 -5.8°
Sets 10:27:28 0° 355° (N) 2,896 6.9 -5.4°
